Regional Weather Roundup
Issued by NWS

Home | Current Version | Previous Version | Text Only | Print | Product List | Glossary Off
Versions: 1 2 3 4 5 6 7 8 9 10 11 12 13 14 15 16 17 18 19 20 21 22 23 24 25 26 27 28 29 30 31 32 33 34 35 36 37 38 39 40 41 42 43 44 45 46 47 48 49 50

000
ASUS43 KLOT 201703
RWRIL

ILLINOIS REGIONAL WEATHER ROUNDUP
NATIONAL WEATHER SERVICE CHICAGO/ROMEOVILLE IL
1100 AM CST FRI JAN 20 2017

NOTE: "FAIR" INDICATES FEW OR NO CLOUDS BELOW 12,000 FEET WITH NO
SIGNIFICANT WEATHER AND/OR OBSTRUCTIONS TO VISIBILITY.

* THESE STATIONS ARE NOT UNDER NWS QUALITY CONTROL. THEY ALSO MAY NOT
  REPORT WEATHER SUCH AS PRECIPITATION OR FOG.

ILZ001-002-007-009-015-016-024-201800-
NORTHWEST ILLINOIS

CITY           SKY/WX    TMP DP  RH WIND       PRES   REMARKS
MOLINE         CLOUDY    41  38  89 S3        29.65S FOG
STERLING*      CLOUDY    39  39 100 S3        29.65S FOG
SAVANNA*       CLOUDY    39  38  98 CALM      29.64F FOG
$$

ILZ003-004-008-010-011-017-018-201800-
NORTH CENTRAL ILLINOIS

CITY           SKY/WX    TMP DP  RH WIND       PRES   REMARKS
ROCKFORD       CLOUDY    40  38  93 SE6       29.66F FOG
FREEPORT*      CLOUDY    38  38 100 SE6       29.66S FOG     WCI  33
ROCHELLE*      CLOUDY    39  39 100 SE7       29.66R FOG     WCI  34
DE KALB*       CLOUDY    40  39  99 SE5       29.65F FOG
$$

ILZ005-006-012>014-019>023-201800-
NORTHEAST ILLINOIS

CITY           SKY/WX    TMP DP  RH WIND       PRES   REMARKS
CHICAGO-OHARE  CLOUDY    40  38  93 CALM      29.65R FOG
CHICAGO-MIDWAY CLOUDY    39  38  96 S5        29.66R FOG
AURORA         NOT AVBL
LANSING*       CLOUDY    39  39 100 CALM      29.66F FOG
JOLIET*        CLOUDY    42  42  98 E3        29.66F FOG
WAUKEGAN       FOG       38  37  97 NE10      29.63F VSB 3/4 WCI  31
DUPAGE AIRPORT CLOUDY    40  38  93 SE3       29.64F FOG
KANKAKEE*      CLOUDY    41  40  97 CALM      29.67S FOG
WHEELING       CLOUDY    39  37  92 SE5       29.66F FOG
MORRIS*        CLOUDY    40  39  97 S6        29.65S FOG
ROMEOVILLE*    CLOUDY    40  40 100 CALM      29.65F FOG
NORTHERLY ISL    N/A     38  37  97 S1          N/A
$$

LMZ740>746-201800-
SOUTHERN LAKE MICHIGAN

STATION/POSITION SKY/WX   TEMP    WIND        PRES    VSBY  WAVE
                          AIR SEA DIR/SP/G                  HT/PER
                          (F)     (DEG/KT/KT) (MB)    (MI)  (FT/S)
HARRISON CRIB              38     120/  2/  3   N/A
BURNHAM HARBOR             38     180/  2/  8   N/A
CALUMET HARBOR             37     190/  4/  6 1004.5R
BURNS HARBOR               36      CALM  /  5 1005.4R
MICHIGAN CITY              35      40/  4/  4   N/A
$$

ILZ025>027-034>036-040-047-049-050-058-095>099-201800-
WEST-CENTRAL ILLINOIS

CITY           SKY/WX    TMP DP  RH WIND       PRES   REMARKS
QUINCY         CLOUDY    45  45 100 SE5       29.62F
GALESBURG*     CLOUDY    40  40 100 S9        29.66R FOG
MACOMB*        CLOUDY    42  42 100 S6        29.67F FOG
JACKSONVILLE*  CLOUDY    46  46  98 CALM      29.65F
PITTSFIELD*    CLOUDY    48  48  99 SE7       29.65F
$$

ILZ028>032-037-038-041>044-048-051>054-059>061-201800-
CENTRAL ILLINOIS

CITY           SKY/WX    TMP DP  RH WIND       PRES   REMARKS
BLOOMINGTON    CLOUDY    44  44 100 SW9       29.67S
DECATUR        CLOUDY    47  33  58 SW7       29.68S HAZE
PEORIA         CLOUDY    43  43 100 S3        29.66S FOG
LACON*         CLOUDY    41  41 100 S5        29.65S FOG
LINCOLN*       CLOUDY    46  46 100 S7        29.67F
SPRINGFIELD    CLOUDY    48  47  96 S5        29.68S FOG
TAYLORVILLE    FOG       47  47 100 S5        29.68F VSB 1/2
$$

ILZ033-039-045-046-055>057-062-063-201800-
EAST-CENTRAL ILLINOIS

CITY           SKY/WX    TMP DP  RH WIND       PRES   REMARKS
CHAMPAIGN      CLOUDY    47  45  93 SW7       29.68S
MATTOON        CLOUDY    48  48 100 S9        29.68F FOG
PARIS*         CLOUDY    49  49 100 S6        29.70F FOG
$$

ILZ079-100>102-201800-
SOUTHWEST ILLINOIS

CITY           SKY/WX    TMP DP  RH WIND       PRES   REMARKS
ALTON          CLOUDY    50  50 100 S10       29.66F
BELLEVILLE     CLOUDY    53  53 100 VRB5      29.66F
CAHOKIA*       CLOUDY    53  47  79 S10       29.66F
SPARTA*        CLOUDY    52  48  87 S6        29.70S
$$

ILZ064>066-069>071-074>076-080>082-084>086-088>090-092>094-201800-
SOUTH-CENTRAL ILLINOIS

CITY           SKY/WX    TMP DP  RH WIND       PRES   REMARKS
CARBONDALE     CLOUDY    55  52  89 S10       29.71S
CAIRO*         CLOUDY    55  54  97 SE8       29.72F
EFFINGHAM*     CLOUDY    51  51 100 SE3       29.71F
MARION         CLOUDY    55  54  94 S9        29.72F
MT. VERNON     CLOUDY    54  50  86 S8        29.71F
CENTRALIA*     CLOUDY    52  50  91 S9G16     29.70S
SALEM*         CLOUDY    53  49  86 S10       29.71S
METROPOLIS*    CLOUDY    56  54  93 CALM      29.74F FOG
$$

ILZ067-068-072-073-078-083-087-091-201800-
SOUTHEAST ILLINOIS

CITY           SKY/WX    TMP DP  RH WIND       PRES   REMARKS
LAWRENCEVILLE  CLOUDY    54  49  83 SW14      29.73R
FLORA*         CLOUDY    54  49  85 S12       29.72S
FAIRFIELD*     CLOUDY    55  50  82 S8        29.71F
HARRISBURG*    CLOUDY    57  52  84 SW12      29.73S
ROBINSON*      CLOUDY    52  50  94 SW10      29.73R
CARMI*         MOSUNNY   57  51  80 S16       29.72F
$$

ABBREVIATIONS USED IN REMARKS
   TC - TEMPERATURE IN CELSIUS
  WCI - WIND CHILL INDEX
   HX - HEAT INDEX
  VSB - VISIBILITY
$$





USA.gov is the U.S. government's official web portal to all federal, state and local government web resources and services.